Location: Hilton Head Island
(32.2163°N, 80.7526°W)
Time: 08:36:37
(UTC-04:00)

Vanguard 2 Rocket - Pass Details

Date: 17 February 2026
Orbit: 553 x 3286 km, 32.9° (Epoch: 16 March)

Event Time Altitude Azimuth Distance (km) Brightness Sun altitude
Rises 18:19:09 0° 285° (WNW) 5,740 12.3 -2.5°
Reaches altitude 10° 18:23:44 10° 281° (W) 4,273 11.7 -3.5°
Maximum altitude 18:33:44 51° 210° (SSW) 1,484 8.3 -5.5°
Drops below altitude 10° 18:39:31 10° 135° (SE) 2,514 8.8 -6.7°
Sets 18:41:35 0° 129° (SE) 3,241 9.3 -7.2°
